Location: Cleveland
(41.4990°N, 81.6960°W)
Time: 06:27:02
(UTC-04:00)

X-37B - Visible Passes

Search period start: 26 September 2021 00:00
Search period end: 06 October 2021 00:00
Orbit: 381 x 393 km, 45.0° (Epoch: 29 August)

Date Brightness Start Highest point End Pass type
(mag) Time Alt. Az. Time Alt. Az. Time Alt. Az.
26 Sep 3.4 04:53:55 19° ENE 04:53:55 19° ENE 04:54:56 10° ENE visible
26 Sep 1.4 06:26:12 15° WNW 06:28:36 41° N 06:31:38 10° ENE visible
27 Sep 1.5 05:30:29 44° NNE 05:30:29 44° NNE 05:33:11 10° ENE visible
28 Sep 4.3 04:34:45 10° ENE 04:34:45 10° ENE 04:34:46 10° ENE visible
28 Sep 1.5 06:07:03 23° NW 06:08:34 41° N 06:11:36 10° ENE visible
29 Sep 2.7 05:11:21 26° NE 05:11:21 26° NE 05:13:06 10° ENE visible
29 Sep 0.9 06:43:50 10° WNW 06:46:59 63° NNE 06:50:07 10° E visible
30 Sep 1.2 05:47:59 42° NNW 05:48:32 48° N 05:51:36 10° E visible
01 Oct 3.8 04:52:23 15° ENE 04:52:23 15° ENE 04:53:04 10° ENE visible
01 Oct 0.5 06:24:41 18° WNW 06:26:52 86° SSW 06:30:01 10° ESE visible
02 Oct 1.6 05:29:10 46° ENE 05:29:10 46° ENE 05:31:35 10° E visible
03 Oct 0.8 06:06:03 42° WSW 06:06:40 50° SSW 06:09:44 10° SE visible
04 Oct 3.4 05:10:43 16° ESE 05:10:43 16° ESE 05:11:28 10° ESE visible
04 Oct 2.5 06:43:03 12° WSW 06:44:37 16° SW 06:46:40 10° S visible
05 Oct 2.6 05:47:51 19° SSE 05:47:51 19° SSE 05:49:11 10° SSE visible
